2E0SQA Weather Reports


time (UTC)temp
C
wind
direction
speed
KPH
gust
KPH
rain 1hr
cm
rain 24hr
cm
rain mn
cm
humidity
%
barometer
mb
20260508105311 14 127 0.0 0.0 0.00 0.03 0.00 73 1015.8
20260508104810 14 135 0.0 0.0 0.00 0.03 0.00 72 1015.8
20260508104307 14 132 0.0 0.0 0.00 0.03 0.00 73 1015.7
20260508103806 14 128 0.0 0.0 0.00 0.03 0.00 74 1015.8
20260508103304 14 158 0.0 0.0 0.00 0.03 0.00 74 1015.8
20260508102805 14 115 0.0 0.0 0.00 0.03 0.00 74 1015.8
20260508102306 14 137 0.0 0.0 0.00 0.03 0.00 74 1015.8
20260508102028 14 144 0.0 0.0 0.00 0.03 0.00 74 1015.8
20260508101304 14 217 0.0 0.0 0.00 0.03 0.00 76 1015.8
20260508101028 13 156 0.0 0.0 0.00 0.03 0.00 76 1015.9
20260508100305 13 113 0.0 0.0 0.00 0.03 0.00 76 1015.9
20260508100110 13 92 0.0 0.0 0.00 0.03 0.00 76 1015.9
20260508095306 13 123 0.0 0.0 0.00 0.03 0.00 77 1016.0
20260508094805 13 49 0.0 0.0 0.00 0.03 0.00 80 1015.9
20260508094304 13 146 0.0 0.0 0.00 0.03 0.00 81 1015.9
20260508093803 13 174 0.0 1.6 0.00 0.03 0.00 81 1016.0
20260508093300 12 152 0.0 1.6 0.00 0.03 0.00 83 1016.0
20260508092800 12 146 0.0 0.0 0.00 0.03 0.00 83 1015.9
20260508092256 12 195 0.0 0.0 0.00 0.03 0.00 85 1015.9
20260508091755 12 135 0.0 0.0 0.00 0.03 0.00 85 1015.8
20260508091518 12 158 0.0 0.0 0.00 0.03 0.00 85 1015.8
20260508090754 11 188 0.0 0.0 0.00 0.03 0.00 85 1015.8
20260508090518 11 194 0.0 0.0 0.00 0.03 0.00 85 1015.8
20260508085750 11 149 0.0 0.0 0.00 0.03 0.00 85 1015.7
20260508085248 11 153 0.0 0.0 0.00 0.03 0.00 85 1015.7
20260508084746 11 212 0.0 0.0 0.00 0.03 0.00 86 1015.7
20260508084511 11 188 0.0 0.0 0.00 0.03 0.00 86 1015.6
20260508083745 11 176 0.0 0.0 0.00 0.03 0.00 86 1015.6
20260508083245 11 197 0.0 0.0 0.00 0.03 0.00 86 1015.5
20260508082742 11 122 0.0 0.0 0.00 0.03 0.00 85 1015.6
20260508082242 11 118 0.0 0.0 0.00 0.03 0.00 85 1015.4
20260508081739 11 126 0.0 0.0 0.00 0.03 0.00 85 1015.5
20260508081500 11 140 0.0 0.0 0.00 0.03 0.00 85 1015.4
20260508080739 11 122 0.0 0.0 0.00 0.03 0.00 85 1015.5
20260508080238 11 136 0.0 0.0 0.00 0.03 0.00 85 1015.5
20260508075953 11 117 0.0 0.0 0.00 0.03 0.00 85 1015.5
20260508075234 11 103 0.0 0.0 0.00 0.03 0.00 85 1015.5
20260508074736 11 143 0.0 0.0 0.00 0.03 0.00 85 1015.5
20260508074233 11 177 0.0 0.0 0.00 0.03 0.00 85 1015.4
20260508073733 11 173 0.0 0.0 0.00 0.03 0.00 86 1015.4
20260508073233 11 195 0.0 0.0 0.00 0.03 0.00 87 1015.5
20260508072732 10 198 0.0 0.0 0.00 0.03 0.00 87 1015.4
20260508072230 10 150 0.0 0.0 0.00 0.03 0.00 88 1015.3
20260508071725 10 174 0.0 0.0 0.00 0.03 0.00 88 1015.4
20260508071713 10 176 0.0 0.0 0.00 0.03 0.00 89 1015.3
20260508070725 10 162 0.0 0.0 0.00 0.03 0.00 89 1015.3
20260508070225 10 156 0.0 0.0 0.00 0.03 0.00 89 1015.3
20260508065724 10 154 0.0 0.0 0.00 0.03 0.00 89 1015.2
20260508065224 10 131 0.0 0.0 0.00 0.03 0.00 90 1015.2
20260508064722 10 131 0.0 0.0 0.00 0.03 0.00 90 1015.2
20260508064453 10 131 0.0 0.0 0.00 0.03 0.00 90 1015.2
20260508063719 9 129 0.0 0.0 0.00 0.03 0.00 91 1015.1
20260508063216 9 70 0.0 0.0 0.00 0.03 0.00 91 1015.0
20260508062715 9 67 0.0 0.0 0.00 0.03 0.00 91 1014.9
20260508062214 9 163 0.0 0.0 0.00 0.03 0.00 92 1014.8
20260508061715 9 136 0.0 0.0 0.00 0.03 0.00 92 1014.8
20260508061213 9 150 0.0 0.0 0.00 0.03 0.00 92 1014.7
20260508060711 8 156 0.0 0.0 0.00 0.03 0.00 92 1014.7
20260508060210 8 146 0.0 0.0 0.00 0.03 0.00 93 1014.6
20260508055934 8 147 0.0 0.0 0.00 0.03 0.00 93 1014.6
20260508055208 8 145 0.0 0.0 0.00 0.03 0.00 93 1014.6
20260508054704 8 146 0.0 0.0 0.00 0.03 0.00 93 1014.6
20260508054205 8 153 0.0 0.0 0.00 0.03 0.00 93 1014.6
20260508053657 8 129 0.0 0.0 0.00 0.03 0.00 93 1014.6
20260508053157 8 141 0.0 0.0 0.00 0.03 0.00 94 1014.6
20260508052655 8 141 0.0 0.0 0.00 0.03 0.00 94 1014.5
20260508052423 7 159 0.0 0.0 0.00 0.03 0.00 94 1014.5
20260508051657 -17 0.0 0.0 0.00 0.03 0.00 1014.4
20260508051150 -17 0.0 0.0 0.00 0.03 0.00 1014.4
20260508050650 -17 0.0 0.0 0.00 0.03 0.00 1014.3
20260508050106 -17 0.0 0.0 0.00 0.03 0.00 1014.3
20260508045549 -17 0.0 0.0 0.00 0.03 0.00 1014.2
20260508044958 -17 0.0 0.0 0.00 0.03 0.00 1014.3
20260508044449 -17 0.0 0.0 0.00 0.03 0.00 1014.3
20260508043854 -17 0.0 0.0 0.00 0.03 0.00 1014.2
20260508043351 -17 0.0 0.0 0.00 0.03 0.00 1014.3
20260508042848 -17 0.0 0.0 0.00 0.03 0.00 1014.3
20260508042259 -17 0.0 0.0 0.00 0.03 0.00 1014.3
20260508041747 -17 0.0 0.0 0.00 0.03 0.00 1014.3
20260508041247 -17 0.0 0.0 0.00 0.03 0.00 1014.3
20260508040653 7 0.0 0.0 0.00 0.03 0.00 92 1014.2
20260508040141 7 143 0.0 0.0 0.00 0.03 0.00 92 1014.3
20260508035912 7 143 0.0 0.0 0.00 0.03 0.00 92 1014.3
20260508035139 7 155 0.0 0.0 0.00 0.03 0.00 93 1014.3
20260508034909 7 160 0.0 0.0 0.00 0.03 0.00 93 1014.2
20260508034134 7 127 0.0 0.0 0.00 0.03 0.00 93 1014.3
20260508033632 7 121 0.0 0.0 0.00 0.03 0.00 92 1014.3
20260508033134 7 193 0.0 0.0 0.00 0.03 0.00 92 1014.3
20260508032628 7 187 0.0 0.0 0.00 0.03 0.00 92 1014.3
20260508032123 7 187 0.0 0.0 0.00 0.03 0.00 92 1014.3
20260508031616 7 187 0.0 0.0 0.00 0.03 0.00 92 1014.3
20260508031109 7 187 0.0 0.0 0.00 0.03 0.00 92 1014.3
20260508030603 7 187 0.0 0.0 0.00 0.03 0.00 92 1014.3
20260508030106 7 187 0.0 0.0 0.00 0.03 0.00 92 1014.3
20260508025551 7 187 0.0 0.0 0.00 0.03 0.00 92 1014.3
20260508025045 7 184 0.0 0.0 0.00 0.03 0.00 92 1014.2
20260508024803 7 191 0.0 0.0 0.00 0.03 0.00 92 1014.2
20260508024034 7 191 0.0 0.0 0.00 0.03 0.00 91 1014.3
20260508023527 7 190 0.0 0.0 0.00 0.03 0.00 91 1014.3
20260508023023 7 191 0.0 0.0 0.00 0.03 0.00 91 1014.4
20260508022515 7 190 0.0 0.0 0.00 0.03 0.00 91 1014.3
20260508022009 7 191 0.0 0.0 0.00 0.03 0.00 91 1014.3
20260508021503 7 191 0.0 0.0 0.00 0.03 0.00 91 1014.2
20260508020956 8 195 0.0 0.0 0.00 0.03 0.00 91 1014.2
20260508020721 8 195 0.0 0.0 0.00 0.03 0.00 90 1014.1
20260508020212 8 195 0.0 0.0 0.00 0.03 0.00 90 1014.2
20260508015440 8 196 0.0 0.0 0.00 0.03 0.00 90 1014.2
20260508014939 8 195 0.0 0.0 0.00 0.03 0.00 90 1014.2
20260508014436 8 195 0.0 0.0 0.00 0.03 0.00 90 1014.2
20260508013935 8 195 0.0 0.0 0.00 0.03 0.00 90 1014.1
20260508013433 8 196 0.0 0.0 0.00 0.03 0.00 89 1014.2
20260508012933 8 195 0.0 0.0 0.00 0.03 0.00 90 1014.2
20260508012432 8 195 0.0 0.0 0.00 0.03 0.00 89 1014.1
20260508011930 8 186 0.0 0.0 0.00 0.03 0.00 89 1014.1
20260508011429 8 172 0.0 0.0 0.00 0.03 0.00 89 1014.1
20260508010926 8 150 0.0 0.0 0.00 0.03 0.00 89 1014.1
20260508010427 8 165 0.0 0.0 0.00 0.03 0.00 89 1014.1
20260508005930 8 164 0.0 0.0 0.00 0.03 0.00 89 1014.1
20260508005424 8 159 0.0 0.0 0.00 0.03 0.00 89 1014.1
20260508004924 8 115 0.0 0.0 0.00 0.03 0.00 89 1014.1
20260508004422 8 194 0.0 0.0 0.00 0.03 0.00 89 1014.1
20260508003925 8 187 0.0 0.0 0.00 0.03 0.00 89 1014.1
20260508003422 9 187 0.0 0.0 0.00 0.03 0.00 89 1014.1
20260508003146 9 186 0.0 0.0 0.00 0.03 0.00 89 1014.1
20260508002417 9 186 0.0 0.0 0.00 0.03 0.00 89 1014.2
20260508001910 9 186 0.0 0.0 0.00 0.03 0.00 88 1014.2
20260508001408 9 186 0.0 0.0 0.00 0.03 0.00 89 1014.2
20260508000908 9 186 0.0 0.0 0.00 0.03 0.00 88 1014.2
20260508000406 9 186 0.0 0.0 0.00 0.03 0.00 88 1014.3
20260507235906 9 186 0.0 0.0 0.00 0.03 0.00 88 1014.2
20260507235406 9 186 0.0 0.0 0.00 0.03 0.00 88 1014.2
20260507235353 9 186 0.0 0.0 0.00 0.03 0.00 88 1014.2
20260507234402 9 186 0.0 0.0 0.00 0.03 0.00 88 1014.2
20260507234126 9 186 0.0 0.0 0.00 0.03 0.00 87 1014.3
20260507233402 9 186 0.0 0.0 0.00 0.03 0.00 87 1014.2
20260507232900 9 194 0.0 0.0 0.00 0.03 0.00 87 1014.3
20260507232637 9 201 0.0 0.0 0.00 0.03 0.00 87 1014.3
20260507232117 9 201 0.0 0.0 0.00 0.03 0.00 87 1014.2
20260507231358 9 201 0.0 0.0 0.00 0.03 0.00 87 1014.2
20260507230858 9 201 0.0 0.0 0.00 0.03 0.00 87 1014.2
20260507230357 9 201 0.0 0.0 0.00 0.03 0.00 87 1014.1
20260507230114 9 201 0.0 0.0 0.00 0.03 0.03 87 1014.2
20260507225357 9 201 0.0 0.0 0.00 0.03 0.03 87 1014.2
20260507224855 9 201 0.0 0.0 0.00 0.03 0.03 87 1014.3
20260507224355 9 201 0.0 0.0 0.00 0.03 0.03 87 1014.2
20260507223854 9 201 0.0 0.0 0.00 0.03 0.03 86 1014.2
20260507223626 9 203 0.0 0.0 0.00 0.03 0.03 86 1014.1
20260507222853 10 203 0.0 0.0 0.00 0.03 0.03 86 1014.1
20260507222350 10 201 0.0 0.0 0.00 0.03 0.03 86 1014.1
20260507221852 10 200 0.0 0.0 0.00 0.03 0.03 86 1014.1
20260507221351 10 201 0.0 0.0 0.00 0.03 0.03 86 1014.0
20260507220850 10 203 0.0 0.0 0.00 0.03 0.03 86 1014.0
20260507220350 10 201 0.0 0.0 0.00 0.03 0.03 86 1013.9
20260507220117 10 203 0.0 0.0 0.00 0.03 0.03 86 1014.0
20260507215350 10 202 0.0 0.0 0.00 0.03 0.03 85 1014.0
20260507214851 10 203 0.0 0.0 0.00 0.03 0.03 85 1013.9
20260507214615 10 193 0.0 0.0 0.00 0.03 0.03 85 1014.0
20260507213845 10 187 0.0 0.0 0.00 0.03 0.03 85 1013.9
20260507213344 11 186 0.0 0.0 0.00 0.03 0.03 85 1014.0
20260507212844 11 187 0.0 0.0 0.00 0.03 0.03 85 1013.9
20260507212343 11 186 0.0 0.0 0.00 0.03 0.03 85 1013.9
20260507211841 11 187 0.0 0.0 0.00 0.03 0.03 85 1014.0
20260507211342 11 187 0.0 0.0 0.00 0.03 0.03 85 1013.9
20260507210839 11 186 0.0 0.0 0.00 0.03 0.03 85 1013.9
20260507210339 11 187 0.0 0.0 0.00 0.03 0.03 85 1013.9
20260507205836 11 187 0.0 0.0 0.00 0.03 0.03 85 1013.9
20260507205558 11 186 0.0 0.0 0.00 0.03 0.03 85 1013.8
20260507204834 11 188 0.0 0.0 0.00 0.03 0.03 86 1013.7
20260507204334 11 187 0.0 0.0 0.00 0.03 0.03 86 1013.7
20260507203834 11 188 0.0 0.0 0.00 0.03 0.03 86 1013.6
20260507203336 11 187 0.0 0.0 0.00 0.03 0.03 86 1013.6
20260507203048 11 187 0.0 0.0 0.00 0.03 0.03 86 1013.5
20260507202335 11 158 0.0 0.0 0.00 0.03 0.03 86 1013.4
20260507201833 11 154 0.0 0.0 0.00 0.03 0.03 86 1013.4
20260507201326 11 153 0.0 0.0 0.00 0.03 0.03 86 1013.3
20260507201052 11 146 0.0 0.0 0.00 0.03 0.03 86 1013.3
20260507200321 11 179 0.0 0.0 0.00 0.03 0.03 86 1013.2
20260507195821 11 183 0.0 0.0 0.00 0.03 0.03 86 1013.3
20260507195318 11 211 0.0 0.0 0.00 0.03 0.03 85 1013.3
20260507194818 11 212 0.0 0.0 0.00 0.03 0.03 85 1013.2
20260507194318 11 212 0.0 0.0 0.03 0.03 0.03 85 1013.2
20260507193816 11 240 0.0 0.0 0.03 0.03 0.03 85 1013.2
20260507193543 11 240 0.0 0.0 0.03 0.03 0.03 84 1013.2
20260507193046 11 240 0.0 0.0 0.03 0.03 0.03 84 1013.2
20260507192535 11 240 0.0 0.0 0.03 0.03 0.03 83 1013.2
20260507191814 11 240 0.0 0.0 0.03 0.03 0.03 82 1013.1
20260507191313 11 240 0.0 0.0 0.03 0.03 0.03 81 1013.1
20260507191036 12 240 0.0 0.0 0.03 0.03 0.03 80 1013.1
20260507190530 12 240 0.0 0.0 0.03 0.03 0.03 79 1013.1
20260507185810 12 240 0.0 0.0 0.03 0.03 0.03 78 1013.1
20260507185311 12 212 0.0 0.0 0.03 0.03 0.03 77 1013.1
20260507184804 12 214 0.0 0.0 0.03 0.03 0.03 76 1013.1
20260507184302 12 213 0.0 0.0 0.00 0.00 0.00 74 1013.1
20260507183803 12 189 0.0 0.0 0.00 0.00 0.00 73 1013.1
20260507183522 12 227 0.0 0.0 0.00 0.00 0.00 72 1013.1
20260507182803 12 235 0.0 0.0 0.00 0.00 0.00 72 1013.0
20260507182302 13 105 0.0 0.0 0.00 0.00 0.00 71 1012.9
20260507182021 13 245 0.0 0.0 0.00 0.00 0.00 71 1012.9
20260507181301 13 226 0.0 0.0 0.00 0.00 0.00 70 1012.9
20260507180800 13 248 0.0 0.0 0.00 0.00 0.00 69 1012.8
20260507180258 13 228 0.0 0.0 0.00 0.00 0.00 69 1012.8
20260507175758 13 215 0.0 4.8 0.00 0.00 0.00 67 1012.8
20260507175300 13 219 0.0 4.8 0.00 0.00 0.00 63 1012.8
20260507175023 14 266 0.0 0.0 0.00 0.00 0.00 61 1012.7
20260507174301 14 129 0.0 0.0 0.00 0.00 0.00 60 1012.7
20260507173759 14 270 0.0 0.0 0.00 0.00 0.00 60 1012.7
20260507173300 14 212 0.0 0.0 0.00 0.00 0.00 60 1012.7
20260507172759 14 179 0.0 0.0 0.00 0.00 0.00 60 1012.7
20260507172258 14 329 0.0 0.0 0.00 0.00 0.00 60 1012.7
20260507171759 14 78 0.0 0.0 0.00 0.00 0.00 60 1012.7
20260507171256 14 142 0.0 0.0 0.00 0.00 0.00 59 1012.7
20260507170754 14 195 0.0 0.0 0.00 0.00 0.00 59 1012.7
20260507170255 14 165 0.0 0.0 0.00 0.00 0.00 58 1012.7
20260507165755 14 295 0.0 0.0 0.00 0.00 0.00 58 1012.7
20260507165739 14 255 0.0 0.0 0.00 0.00 0.00 58 1012.7
20260507164755 14 135 0.0 0.0 0.00 0.00 0.00 58 1012.7
20260507164254 14 336 0.0 1.6 0.00 0.00 0.00 58 1012.7
20260507164038 15 331 0.0 1.6 0.00 0.00 0.00 57 1012.7
20260507163253 15 166 0.0 1.6 0.00 0.00 0.00 57 1012.7
20260507162753 15 132 0.0 1.6 0.00 0.00 0.00 58 1012.6
20260507162253 15 34 0.0 1.6 0.00 0.00 0.00 58 1012.5
20260507161753 15 195 0.0 1.6 0.00 0.00 0.00 58 1012.6
20260507161248 15 190 0.0 1.6 0.00 0.00 0.00 57 1012.6
20260507160749 15 151 0.0 0.0 0.00 0.00 0.00 57 1012.7
20260507160327 15 160 0.0 0.0 0.00 0.00 0.00 56 1012.7
20260507160249 15 163 0.0 0.0 0.00 0.00 0.00 56 1012.7
20260507155247 15 162 0.0 1.6 0.00 0.00 0.00 56 1012.7
20260507154746 15 181 0.0 1.6 0.00 0.00 0.00 57 1012.7
20260507154248 14 197 0.0 0.0 0.00 0.00 0.00 58 1012.8
20260507153747 14 190 0.0 0.0 0.00 0.00 0.00 59 1012.8
20260507153245 14 163 0.0 0.0 0.00 0.00 0.00 59 1012.8
20260507152747 14 190 0.0 1.6 0.00 0.00 0.00 58 1012.8
20260507152247 14 146 0.0 1.6 0.00 0.00 0.00 58 1012.9
20260507151748 14 169 0.0 1.6 0.00 0.00 0.00 58 1012.9
20260507151244 14 87 0.0 4.8 0.00 0.00 0.00 58 1012.9
20260507151025 15 160 0.0 4.8 0.00 0.00 0.00 57 1013.0
20260507150529 15 155 0.0 1.6 0.00 0.00 0.00 57 1013.0
20260507145742 15 190 0.0 1.6 0.00 0.00 0.00 56 1013.0
20260507145256 15 127 0.0 0.0 0.00 0.00 0.00 54 1013.0
20260507144740 15 200 0.0 0.0 0.00 0.00 0.00 53 1013.0
20260507144236 15 160 0.0 0.0 0.00 0.00 0.00 53 1013.0
20260507143736 15 153 0.0 1.6 0.00 0.00 0.00 53 1013.2
20260507143237 15 167 0.0 1.6 0.00 0.00 0.00 54 1013.2
20260507142737 15 136 0.0 1.6 0.00 0.00 0.00 54 1013.3
20260507142237 16 135 0.0 3.2 0.00 0.00 0.00 54 1013.4
20260507141735 16 117 0.0 3.2 0.00 0.00 0.00 55 1013.4
20260507141237 15 153 0.0 1.6 0.00 0.00 0.00 54 1013.4
20260507140733 15 170 0.0 1.6 0.00 0.00 0.00 54 1013.4
20260507140232 15 176 0.0 1.6 0.00 0.00 0.00 53 1013.4
20260507135732 15 128 0.0 1.6 0.00 0.00 0.00 54 1013.5
20260507135230 15 81 0.0 1.6 0.00 0.00 0.00 54 1013.6
20260507134731 15 190 0.0 1.6 0.00 0.00 0.00 56 1013.6
20260507134231 15 148 0.0 0.0 0.00 0.00 0.00 55 1013.6
20260507133728 15 188 0.0 0.0 0.00 0.00 0.00 57 1013.7
20260507133228 15 188 0.0 0.0 0.00 0.00 0.00 56 1013.7
20260507132951 15 200 0.0 1.6 0.00 0.00 0.00 56 1013.8
20260507132229 15 129 0.0 1.6 0.00 0.00 0.00 56 1013.7
20260507131728 15 153 0.0 0.0 0.00 0.00 0.00 57 1013.7
20260507131228 15 122 0.0 1.6 0.00 0.00 0.00 57 1013.8
20260507130726 15 98 0.0 1.6 0.00 0.00 0.00 58 1013.8
20260507130226 15 177 0.0 3.2 0.00 0.00 0.00 58 1013.8
20260507125726 15 249 0.0 3.2 0.00 0.00 0.00 58 1013.9
20260507125452 15 180 0.0 0.0 0.00 0.00 0.00 59 1014.0
20260507124726 14 190 0.0 0.0 0.00 0.00 0.00 60 1013.9
20260507124228 15 167 0.0 0.0 0.00 0.00 0.00 59 1014.0
20260507123728 15 283 0.0 0.0 0.00 0.00 0.00 61 1014.0
20260507123227 14 162 0.0 0.0 0.00 0.00 0.00 61 1014.0
20260507122724 14 145 0.0 0.0 0.00 0.00 0.00 61 1014.0
20260507122225 14 206 0.0 1.6 0.00 0.00 0.00 62 1014.0
20260507121725 14 146 0.0 1.6 0.00 0.00 0.00 63 1014.1
20260507121443 13 155 0.0 1.6 0.00 0.00 0.00 67 1014.1
20260507120725 13 158 0.0 1.6 0.00 0.00 0.00 66 1014.1
20260507120223 13 262 0.0 0.0 0.00 0.00 0.00 68 1014.2
20260507115723 13 127 0.0 0.0 0.00 0.00 0.00 70 1014.2
20260507115222 12 158 0.0 0.0 0.00 0.00 0.00 70 1014.2
20260507114722 12 211 0.0 0.0 0.00 0.00 0.00 72 1014.3
20260507114221 12 135 0.0 1.6 0.00 0.00 0.00 73 1014.2
20260507113720 11 152 0.0 1.6 0.00 0.00 0.00 73 1014.3
20260507113221 11 197 0.0 1.6 0.00 0.00 0.00 74 1014.4
20260507112714 11 146 0.0 1.6 0.00 0.00 0.00 74 1014.4
20260507112214 11 319 0.0 0.0 0.00 0.00 0.00 76 1014.5
20260507111714 11 191 0.0 0.0 0.00 0.00 0.00 77 1014.4
20260507111215 11 169 0.0 1.6 0.00 0.00 0.00 77 1014.4
20260507110715 10 259 0.0 1.6 0.00 0.00 0.00 78 1014.5
20260507110214 10 190 0.0 0.0 0.00 0.00 0.00 78 1014.5
20260507105714 10 199 0.0 0.0 0.00 0.00 0.00 79 1014.5